Regional Weather Roundup
Issued by NWS

Home | Current Version | Previous Version | Graphics & Text | Print | Product List | Glossary On
Versions: 1 2 3 4 5 6 7 8 9 10 11 12 13 14 15 16 17 18 19 20 21 22 23 24 25 26 27 28 29 30 31 32 33 34 35 36 37 38 39 40 41 42 43 44 45 46 47 48 49 50
000
ASUS43 KLOT 250710
RWRIL

ILLINOIS REGIONAL WEATHER ROUNDUP
NATIONAL WEATHER SERVICE CHICAGO/ROMEOVILLE IL
200 AM CDT SAT OCT 25 2014

NOTE: "FAIR" INDICATES FEW OR NO CLOUDS BELOW 12,000 FEET WITH NO
SIGNIFICANT WEATHER AND/OR OBSTRUCTIONS TO VISIBILITY.

* THESE STATIONS ARE NOT UNDER NWS QUALITY CONTROL. THEY ALSO MAY NOT
  REPORT WEATHER SUCH AS PRECIPITATION OR FOG.

ILZ001-002-007-009-015-016-024-250800-
NORTHWEST ILLINOIS

CITY           SKY/WX    TMP DP  RH WIND       PRES   REMARKS
MOLINE         FOG       51  49  92 CALM      29.93F VSB<1/4
STERLING*      CLOUDY    54  48  82 W7        29.93S
SAVANNA*       CLOUDY    60  57  92 W7        29.93S FOG
$$

ILZ003-004-008-010-011-017-018-250800-
NORTH CENTRAL ILLINOIS

CITY           SKY/WX    TMP DP  RH WIND       PRES   REMARKS
ROCKFORD       CLEAR     54  51  90 W3        29.93S
FREEPORT*      MOCLDY    56  55  95 W8        29.93R FOG
ROCHELLE*      CLEAR     53  52  97 W5        29.91F FOG
DE KALB*       PTCLDY    53  50  88 SW6       29.91F
PERU*          PTCLDY    55  50  83 W9        29.93S
$$

ILZ005-006-012>014-019>023-250800-
NORTHEAST ILLINOIS

CITY           SKY/WX    TMP DP  RH WIND       PRES   REMARKS
CHICAGO-OHARE  PTCLDY    57  50  77 SW6       29.89F
CHICAGO-MIDWAY MOCLDY    59  52  77 SW7       29.90F
AURORA         PTCLDY    54  48  80 SW3       29.91F
LANSING*       MOCLDY    56  52  86 W6        29.93R
JOLIET*        CLOUDY    55  53  92 CALM      29.92F
WAUKEGAN       MOCLDY    53  48  83 SW5       29.87F
DUPAGE AIRPORT PTCLDY    55  49  80 SW8       29.90F
KANKAKEE*      CLOUDY    56  53  89 SW6       29.94R
WHEELING       PTCLDY    57  49  74 S6        29.90F
MORRIS*        CLOUDY    58  54  85 SW6       29.91F
ROMEOVILLE*    CLOUDY    56  52  85 SW5       29.91F
NORTHERLY ISL    N/A     59  50  72 S5          N/A
$$

LMZ740>746-250800-
SOUTHERN LAKE MICHIGAN

STATION/POSITION SKY/WX   TEMP    WIND        PRES    VSBY  WAVE
                          AIR SEA DIR/SP/G                  HT/PER
                          (F)     (DEG/KT/KT) (MB)    (MI)  (FT/S)
SOUTHERN BUOY              58 54  210/ 12/ 14 1011.2F         1/ 3
WAUKEGAN HARBOR            59     240/  7/  9   N/A
HARRISON CRIB              62     220/ 11/ 16   N/A
BURNHAM HARBOR             59     190/  5/  9   N/A
CALUMET HARBOR             58     210/  5/  8 1011.8F
MICHIGAN CITY              59     190/ 10/ 11   N/A
$$

ILZ025>027-034>036-040-047-049-050-058-095>099-250800-
WEST-CENTRAL ILLINOIS

CITY           SKY/WX    TMP DP  RH WIND       PRES   REMARKS
QUINCY         MOCLDY    59  57  93 W5        29.97R
GALESBURG*     MOCLDY    50  49  97 CALM      29.95F FOG
MACOMB*        MOCLDY    50  49  97 W6        29.98S
PITTSFIELD*    PTCLDY    64  59  83 W6        29.98R
$$

ILZ028>032-037-038-041>044-048-051>054-059>061-250800-
CENTRAL ILLINOIS

CITY           SKY/WX    TMP DP  RH WIND       PRES   REMARKS
PONTIAC        CLOUDY    60  53  77 SW5       29.94S
BLOOMINGTON    MOCLDY    60  53  77 SW9       29.96R
DECATUR        CLOUDY    62  53  72 SW13      29.96S
PEORIA         CLOUDY    58  51  78 SW5       29.95S
LACON*         CLOUDY    60  51  72 W6        29.94R
LINCOLN*       MOCLDY    59  51  76 CALM      29.94S
SPRINGFIELD    PTCLDY    60  51  72 SW5       29.96S
TAYLORVILLE    CLOUDY    57  52  82 SW6       29.96F
$$

ILZ033-039-045-046-055>057-062-063-250800-
EAST-CENTRAL ILLINOIS

CITY           SKY/WX    TMP DP  RH WIND       PRES   REMARKS
CHAMPAIGN      MOCLDY    56  52  86 S8        29.95F
DANVILLE*      CLOUDY    57  53  85 SW7       29.93F
RANTOUL*       MOCLDY    60  54  79 SW7       29.95R
MATTOON        CLOUDY    60  52  74 S10       29.95F
PARIS*         CLOUDY    59  54  84 S7        29.97F
$$

ILZ079-100>102-250800-
SOUTHWEST ILLINOIS

CITY           SKY/WX    TMP DP  RH WIND       PRES   REMARKS
ALTON          CLEAR     58  52  81 S3        29.98F
BELLEVILLE     CLEAR     55  53  95 S5        29.98F
CAHOKIA*       CLEAR     61  56  83 S3        29.98F
SPARTA*        CLEAR     59  54  83 S5        30.01S
$$

ILZ064>066-069>071-074>076-080>082-084>086-088>090-092>094-250800-
SOUTH-CENTRAL ILLINOIS

CITY           SKY/WX    TMP DP  RH WIND       PRES   REMARKS
CARBONDALE     MOCLDY    55  51  86 S3        30.02F
CAIRO*         CLEAR     52  49  89 CALM      30.05S
EFFINGHAM*     CLOUDY    58  50  75 S3        29.98F
MARION         CLOUDY    57  54  88 S3        30.03S
MT. VERNON     MOCLDY    54  50  87 CALM      30.02F
CENTRALIA*     PTCLDY    58  52  79 S7        30.00F
SALEM*         MOCLDY    60  55  86 S6        30.00F
METROPOLIS*    CLEAR     49  49 100 CALM      30.04F FOG
$$

ILZ067-068-072-073-078-083-087-091-250800-
SOUTHEAST ILLINOIS

CITY           SKY/WX    TMP DP  RH WIND       PRES   REMARKS
LAWRENCEVILLE  CLOUDY    53  51  93 S3        30.01F
FLORA*         CLEAR     57  52  84 S3        30.01F
FAIRFIELD*     CLOUDY    56  53  88 S5        30.01S
HARRISBURG*    MOCLDY    51  51 100 CALM      30.04S FOG
ROBINSON*      CLOUDY    57  55  92 S6        30.01F
CARMI*         MOCLDY    55  54  99 CALM      30.02F
$$

ABBREVIATIONS USED IN REMARKS
   TC - TEMPERATURE IN CELSIUS
  WCI - WIND CHILL INDEX
   HX - HEAT INDEX
  VSB - VISIBILITY
$$




USA.gov is the U.S. government's official web portal to all federal, state and local government web resources and services.